• In Lithuania
  • List of Countries
  • For 7 days
  • Water Temperature
  • Satellite Maps
  • Weather Map
  • Weather Widgets
  • user-avatar
    Login

    Hourly Weather Skarbki

    Today, 17 July, Tuesday

    Time Temperature Precipitation Wind Pressure Humidity
    00:00 +18°C° 0.3 mm 3 mps 747 mmHg 94%
    01:00 +18°C° 0.3 mm 3 mps 747 mmHg 95%
    02:00 +18°C° 1.7 mm 3 mps 747 mmHg 95%
    03:00 +18°C° 1.7 mm 3 mps 747 mmHg 95%
    04:00 +18°C° 1.7 mm 3 mps 746 mmHg 96%
    05:00 +18°C° 2.2 mm 3 mps 746 mmHg 95%
    06:00 +19°C° 2.2 mm 3 mps 746 mmHg 95%
    07:00 +19°C° 2.2 mm 3 mps 746 mmHg 94%
    08:00 +19°C° 1.4 mm 3 mps 746 mmHg 93%
    09:00 +19°C° 1.4 mm 3 mps 746 mmHg 91%
    10:00 +20°C° 1.4 mm 3 mps 746 mmHg 90%
    11:00 +20°C° 0.6 mm 3 mps 746 mmHg 86%
    12:00 +21°C° 0.6 mm 4 mps 746 mmHg 83%
    13:00 +22°C° 0.6 mm 4 mps 746 mmHg 80%
    14:00 +22°C° 0.5 mm 5 mps 746 mmHg 79%
    15:00 +23°C° 0.5 mm 5 mps 746 mmHg 79%
    16:00 +23°C° 0.5 mm 5 mps 746 mmHg 78%
    17:00 +22°C° 0.5 mm 5 mps 746 mmHg 82%
    18:00 +21°C° 0.5 mm 4 mps 746 mmHg 85%
    19:00 +21°C° 0.5 mm 4 mps 746 mmHg 89%
    20:00 +20°C° 0.3 mm 4 mps 746 mmHg 91%
    21:00 +20°C° 0.3 mm 3 mps 746 mmHg 94%
    22:00 +19°C° 0.3 mm 3 mps 746 mmHg 96%
    23:00 +19°C° 1.2 mm 4 mps 746 mmHg 96%

    Tomorrow, 18 July, Wednesday

    Time Temperature Precipitation Wind Pressure Humidity
    00:00 +19°C° 1.2 mm 4 mps 746 mmHg 97%
    01:00 +19°C° 1.2 mm 4 mps 746 mmHg 97%
    02:00 +19°C° 0.8 mm 4 mps 746 mmHg 97%
    03:00 +19°C° 0.8 mm 4 mps 746 mmHg 97%
    04:00 +19°C° 0.8 mm 4 mps 746 mmHg 97%
    05:00 +19°C° 0.6 mm 4 mps 746 mmHg 96%
    06:00 +20°C° 0.6 mm 4 mps 746 mmHg 96%
    07:00 +20°C° 0.6 mm 4 mps 746 mmHg 95%
    08:00 +21°C° 0.5 mm 4 mps 746 mmHg 92%
    09:00 +22°C° 0.5 mm 4 mps 747 mmHg 90%
    10:00 +23°C° 0.5 mm 4 mps 747 mmHg 87%
    11:00 +23°C° 0.7 mm 5 mps 747 mmHg 84%
    12:00 +24°C° 0.7 mm 6 mps 747 mmHg 81%
    13:00 +26°C° 0.7 mm 6 mps 747 mmHg 79%
    14:00 +26°C° 0.6 mm 6 mps 747 mmHg 79%
    15:00 +26°C° 0.6 mm 7 mps 747 mmHg 79%
    16:00 +26°C° 0.6 mm 7 mps 747 mmHg 79%
    17:00 +24°C° 0.4 mm 6 mps 748 mmHg 82%
    18:00 +23°C° 0.4 mm 6 mps 748 mmHg 85%
    19:00 +22°C° 0.4 mm 6 mps 748 mmHg 88%
    20:00 +21°C° 0.2 mm 6 mps 748 mmHg 89%
    21:00 +21°C° 0.2 mm 5 mps 749 mmHg 91%
    22:00 +20°C° 0.2 mm 5 mps 749 mmHg 93%
    23:00 +20°C° 0.1 mm 5 mps 749 mmHg 94%

    Day after tomorrow, 19 July, Thursday

    Time Temperature Precipitation Wind Pressure Humidity
    00:00 +19°C° 0.1 mm 5 mps 749 mmHg 95%
    01:00 +19°C° 0.1 mm 4 mps 749 mmHg 95%
    02:00 +19°C° 0.1 mm 4 mps 749 mmHg 95%
    03:00 +19°C° 0.1 mm 4 mps 749 mmHg 95%
    04:00 +19°C° 0.1 mm 4 mps 749 mmHg 95%
    05:00 +19°C° 0 mm 4 mps 749 mmHg 94%
    06:00 +19°C° 0 mm 4 mps 749 mmHg 92%
    07:00 +20°C° 0 mm 4 mps 750 mmHg 91%
    08:00 +20°C° 0.1 mm 4 mps 750 mmHg 88%
    09:00 +21°C° 0.1 mm 4 mps 750 mmHg 86%
    10:00 +22°C° 0.1 mm 4 mps 750 mmHg 83%
    11:00 +23°C° 0.3 mm 5 mps 750 mmHg 80%
    12:00 +25°C° 0.3 mm 5 mps 750 mmHg 77%
    13:00 +25°C° 0.3 mm 5 mps 750 mmHg 74%
    14:00 +25°C° 0.4 mm 5 mps 750 mmHg 74%
    15:00 +25°C° 0.4 mm 5 mps 750 mmHg 73%
    16:00 +26°C° 0.4 mm 5 mps 750 mmHg 72%
    17:00 +25°C° 0.3 mm 4 mps 750 mmHg 75%
    18:00 +23°C° 0.3 mm 4 mps 750 mmHg 78%
    19:00 +22°C° 0.3 mm 3 mps 750 mmHg 81%
    20:00 +21°C° 0 mm 3 mps 750 mmHg 83%
    21:00 +21°C° 0 mm 3 mps 750 mmHg 85%
    22:00 +20°C° 0 mm 3 mps 751 mmHg 87%
    23:00 +19°C° 0 mm 3 mps 751 mmHg 89%

    20 July, Friday

    Time Temperature Precipitation Wind Pressure Humidity
    00:00 +18°C° 0 mm 3 mps 751 mmHg 90%
    01:00 +18°C° 0 mm 3 mps 751 mmHg 92%
    02:00 +17°C° 0 mm 3 mps 750 mmHg 93%
    03:00 +17°C° 0 mm 3 mps 750 mmHg 94%
    04:00 +16°C° 0 mm 3 mps 750 mmHg 95%
    05:00 +17°C° 0 mm 3 mps 750 mmHg 91%
    06:00 +18°C° 0 mm 4 mps 751 mmHg 86%
    07:00 +19°C° 0 mm 4 mps 751 mmHg 82%
    08:00 +21°C° 0 mm 4 mps 751 mmHg 77%
    09:00 +22°C° 0 mm 4 mps 751 mmHg 71%
    10:00 +25°C° 0 mm 4 mps 751 mmHg 65%
    11:00 +26°C° 0 mm 5 mps 750 mmHg 62%
    12:00 +26°C° 0 mm 5 mps 750 mmHg 60%
    13:00 +27°C° 0 mm 5 mps 750 mmHg 57%
    14:00 +27°C° 0 mm 5 mps 750 mmHg 57%
    15:00 +27°C° 0 mm 5 mps 750 mmHg 57%
    16:00 +27°C° 0 mm 5 mps 750 mmHg 57%
    17:00 +26°C° 0 mm 4 mps 750 mmHg 62%
    18:00 +25°C° 0 mm 3 mps 750 mmHg 68%
    19:00 +24°C° 0 mm 3 mps 750 mmHg 73%
    20:00 +22°C° 0 mm 3 mps 750 mmHg 76%
    21:00 +21°C° 0 mm 3 mps 750 mmHg 79%
    22:00 +19°C° 0 mm 3 mps 750 mmHg 82%
    23:00 +19°C° 0 mm 2 mps 750 mmHg 85%

    21 July, Saturday

    Time Temperature Precipitation Wind Pressure Humidity
    00:00 +18°C° 0 mm 2 mps 750 mmHg 87%
    01:00 +17°C° 0 mm 2 mps 750 mmHg 90%
    02:00 +17°C° 0 mm 2 mps 750 mmHg 90%
    03:00 +16°C° 0 mm 2 mps 750 mmHg 91%
    04:00 +16°C° 0 mm 1 mps 750 mmHg 92%
    05:00 +18°C° 0 mm 1 mps 750 mmHg 86%
    06:00 +19°C° 0 mm 1 mps 750 mmHg 81%
    07:00 +21°C° 0 mm 1 mps 750 mmHg 75%
    08:00 +21°C° 0 mm 2 mps 750 mmHg 68%
    09:00 +23°C° 0 mm 2 mps 750 mmHg 62%
    10:00 +25°C° 0 mm 2 mps 750 mmHg 55%
    11:00 +25°C° 0 mm 2 mps 749 mmHg 52%
    12:00 +26°C° 0 mm 2 mps 749 mmHg 49%
    13:00 +27°C° 0 mm 2 mps 749 mmHg 45%
    14:00 +27°C° 0 mm 2 mps 749 mmHg 45%
    15:00 +27°C° 0 mm 2 mps 749 mmHg 45%
    16:00 +27°C° 0 mm 2 mps 748 mmHg 44%
    17:00 +26°C° 0 mm 2 mps 748 mmHg 50%
    18:00 +24°C° 0 mm 2 mps 748 mmHg 55%
    19:00 +23°C° 0 mm 1 mps 748 mmHg 60%
    20:00 +21°C° 0 mm 2 mps 748 mmHg 60%
    21:00 +20°C° 0 mm 2 mps 749 mmHg 60%
    22:00 +20°C° 0 mm 2 mps 749 mmHg 60%
    23:00 +19°C° 0 mm 2 mps 749 mmHg 65%

    22 July, Sunday

    Time Temperature Precipitation Wind Pressure Humidity
    00:00 +18°C° 0 mm 2 mps 749 mmHg 70%
    01:00 +17°C° 0 mm 2 mps 749 mmHg 76%
    02:00 +17°C° 0 mm 2 mps 749 mmHg 78%
    03:00 +17°C° 0 mm 2 mps 749 mmHg 80%
    04:00 +16°C° 0 mm 2 mps 749 mmHg 83%
    05:00 +17°C° 0 mm 2 mps 749 mmHg 80%
    06:00 +18°C° 0 mm 2 mps 749 mmHg 77%
    07:00 +20°C° 0 mm 2 mps 749 mmHg 74%
    08:00 +21°C° 0 mm 3 mps 749 mmHg 69%
    09:00 +22°C° 0 mm 3 mps 749 mmHg 65%
    10:00 +24°C° 0 mm 3 mps 749 mmHg 60%
    11:00 +25°C° 0.1 mm 4 mps 749 mmHg 58%
    12:00 +25°C° 0.1 mm 4 mps 749 mmHg 55%
    13:00 +25°C° 0.1 mm 4 mps 749 mmHg 53%
    14:00 +25°C° 0 mm 3 mps 749 mmHg 54%
    15:00 +25°C° 0 mm 3 mps 749 mmHg 56%
    16:00 +25°C° 0 mm 3 mps 749 mmHg 57%
    17:00 +24°C° 0 mm 3 mps 749 mmHg 61%
    18:00 +22°C° 0 mm 3 mps 749 mmHg 66%
    19:00 +21°C° 0 mm 2 mps 749 mmHg 71%
    20:00 +20°C° 0 mm 2 mps 749 mmHg 73%
    21:00 +19°C° 0 mm 2 mps 750 mmHg 75%
    22:00 +19°C° 0 mm 2 mps 750 mmHg 77%
    23:00 +18°C° 0 mm 2 mps 750 mmHg 81%
    Show more